Orlando, FL

9:51 PM EDT on March 26, 2017 (GMT -0400)
Executive

Weather History for KORL - September, 2012

Change the Weather History Date:

Wednesday, September 26, 2012

  Actual Average Record
Temperature  
Mean Temperature 82 °F -  
Max Temperature 91 °F 85 °F 91 °F (2000)
Min Temperature 72 °F 71 °F 68 °F (2008)
Cooling Degree Days 16    
Growing Degree Days 32 (Base 50)    
Moisture  
Dew Point 71 °F    
Average Humidity 78    
Maximum Humidity 94    
Minimum Humidity 43    
Precipitation  
Precipitation 0.00 in - - ()
Sea Level Pressure  
Sea Level Pressure 30.10 in    
Wind  
Wind Speed 4 mph (NE)    
Max Wind Speed 15 mph    
Max Gust Speed -    
Visibility 8 miles    
Events Fog    
Averages and records for this station are not official NWS values.
T = Trace of Precipitation, MM = Missing Value Source: NWS Daily Summary

Daily Weather History Graph

Daily Weather History Graph

Search for Another Location

Airport or City:

Trip Planner

Search our weather history database for the weather conditions in past years. The results will help you decide how hot, cold, wet, or windy it might be!

Date:

Astronomy

Sep. 26, 2012 Rise Set
Actual Time 7:16 AM EDT 7:16 PM EDT
Civil Twilight 6:52 AM EDT 7:39 PM EDT
Nautical Twilight 6:25 AM EDT 8:07 PM EDT
Astronomical Twilight 5:57 AM EDT 8:34 PM EDT
Moon 5:03 PM EDT (9/26) 3:55 AM EDT (9/26)
Length of Visible Light 12h 47m
Length of Day
12h 00m
Waxing Gibbous, 88% of the Moon is Illuminated
Sep 26
Waxing Gibbous
Sep 29
Full
Oct 8
Last Quarter
Oct 15
New
Oct 21
First Quarter

Hourly Weather History & Observations

Time (EDT) Temp. Heat Index Dew Point Humidity Pressure Visibility Wind Dir Wind Speed Gust Speed Precip Events Conditions
1:53 AM 75.0 °F - 71.1 °F 87% 30.09 in 10.0 mi NNE 4.6 mph - N/A   Clear
2:17 AM 73.4 °F - 71.6 °F 94% 30.08 in 10.0 mi ENE 4.6 mph - N/A   Scattered Clouds
2:25 AM 73.4 °F - 71.6 °F 94% 30.08 in 10.0 mi NE 3.5 mph - N/A   Mostly Cloudy
2:32 AM 73.4 °F - 71.6 °F 94% 30.08 in 10.0 mi NE 3.5 mph - N/A   Scattered Clouds
2:53 AM 73.9 °F - 71.1 °F 91% 30.08 in 10.0 mi Calm Calm - N/A   Scattered Clouds
4:53 AM 73.0 °F - 71.1 °F 93% 30.07 in 10.0 mi Calm Calm - N/A   Clear
5:46 AM 73.4 °F - 69.8 °F 88% 30.07 in 10.0 mi Calm Calm - N/A   Partly Cloudy
5:53 AM 73.0 °F - 71.1 °F 93% 30.08 in 10.0 mi Calm Calm - N/A   Partly Cloudy
6:53 AM 72.0 °F - 70.0 °F 93% 30.09 in 5.0 mi Calm Calm - N/A   Clear
8:37 AM 73.4 °F - 71.6 °F 94% 30.11 in 7.0 mi NNE 5.8 mph - N/A   Partly Cloudy
8:50 AM 75.2 °F - 71.6 °F 89% 30.12 in 0.5 mi North 4.6 mph - N/A Fog Fog
8:53 AM 75.0 °F - 72.0 °F 90% 30.13 in 0.5 mi North 5.8 mph - N/A Fog Fog
9:00 AM 73.4 °F - 71.6 °F 94% 30.12 in 0.5 mi North 3.5 mph - N/A Fog Fog
9:04 AM 75.2 °F - 71.6 °F 89% 30.12 in 1.0 mi North 3.5 mph - N/A   Mist
9:26 AM 77.0 °F - 71.6 °F 83% 30.12 in 3.0 mi NNE 3.5 mph - N/A   Haze
9:53 AM 79.0 °F - 72.0 °F 79% 30.14 in 10.0 mi NNE 3.5 mph - N/A   Partly Cloudy
10:53 AM 82.0 °F 87.4 °F 73.0 °F 74% 30.14 in 10.0 mi Variable 4.6 mph - N/A   Clear
11:53 AM 84.9 °F 89.4 °F 70.0 °F 61% 30.14 in 10.0 mi SE 5.8 mph - N/A   Clear
12:53 PM 88.0 °F 92.1 °F 69.1 °F 53% 30.12 in 10.0 mi Variable 4.6 mph - N/A   Clear
1:53 PM 90.0 °F 91.7 °F 64.9 °F 43% 30.11 in 10.0 mi Calm Calm - N/A   Mostly Cloudy
2:53 PM 91.0 °F 93.8 °F 66.0 °F 44% 30.08 in 10.0 mi East 5.8 mph - N/A   Clear
3:53 PM 88.0 °F 89.6 °F 64.9 °F 46% 30.08 in 10.0 mi ENE 4.6 mph - N/A   Scattered Clouds
4:53 PM 86.0 °F 90.7 °F 70.0 °F 59% 30.07 in 10.0 mi East 15.0 mph - N/A   Partly Cloudy
5:53 PM 84.0 °F 88.4 °F 70.0 °F 63% 30.06 in 10.0 mi East 8.1 mph - N/A   Clear
6:53 PM 82.9 °F 86.5 °F 69.1 °F 63% 30.09 in 10.0 mi ENE 10.4 mph - N/A   Clear
7:53 PM 80.1 °F 83.6 °F 71.1 °F 74% 30.12 in 10.0 mi East 6.9 mph - N/A   Partly Cloudy
8:53 PM 79.0 °F - 72.0 °F 79% 30.14 in 10.0 mi ESE 4.6 mph - N/A   Scattered Clouds
9:53 PM 79.0 °F - 72.0 °F 79% 30.14 in 10.0 mi Calm Calm - N/A   Clear
10:53 PM 79.0 °F - 72.0 °F 79% 30.14 in 10.0 mi NE 3.5 mph - N/A   Clear
11:53 PM 79.0 °F - 73.0 °F 82% 30.13 in 10.0 mi NNE 3.5 mph - N/A   Clear